logo
Search for airport 
image banner adimage banner adimage banner ad
image banner ad

EI0001 - Adare Manor

Located in Limerick, Ireland

ICAO - , IATA -

Data provided by Airmate  

General information

Coordinates: N52°33'58" W8°47'15"
Elevation is 22 feet MSL.
 
View others Airports in County Limerick

Operational data

Special qualification required
Current time UTC:
Current local time:
Weather at : EINN - Shannon ( 18 km )
METAR: EINN 130600Z 21009KT 9999 FEW011 BKN060 BKN200 12/10 Q1018 NOSIG
TAF: TAF EINN 130500Z 1306/1406 19010KT 9999 FEW010 BKN020 BECMG 1307/1309 23015KT TEMPO 1308/1310 23016G27KT 4000 SHRA BKN012 BECMG 1309/1311 27017G28KT BECMG 1318/1320 24010KT
View NOTAMs / SUP AIP / TFR affecting this airport [VIEW]
Communications frequencies: [VIEW]

Runways:

Airport contact information

Address: Limerick Ireland

Satellite view of EI0001